sat.trackr.live / text

‹ back to catalog

IRIDIUM 123

NORAD 42804 · 2017-039B

PAYLOAD ACTIVE UNKNOWN

§ Identity

Operator
Country
US
Launch date
2017-06-25
Launch site
AFWTR
Launch vehicle
Mass (kg)
RCS (m²)

Purposes: comms

External: N2YO · Heavens-Above · Gunter

§ Orbital elements

Epoch: 2026-09-20T02:20:02.940000Z

Period
100.40 min
Inclination
86.3973°
Eccentricity
0.0002226
Mean motion
14.34217724 rev/d
Perigee alt
776.1 km
Apogee alt
779.3 km
Semi-major
7,155.8 km
B*
8.7226e-6
RAAN
313.9858°
Arg perigee
90.6018°
Mean anomaly
269.5433°
Rev number
48,355

§ Raw data

IRIDIUM 1231 42804U 17039B   26263.09725625  .00000044  00000+0  87226-5 0  99902 42804  86.3973 313.9858 0002226  90.6018 269.5433 14.34217724483551

JSON: /api/v1/satellites/42804 · /tle

For live sub-satellite position, see the globe view (requires WebGL).

§ Visibility from observer

Set your observer location to see the next 7 days of passes ≥ 10°. The values pass through the URL so the page stays shareable.

No JS? Fill the form by hand. The geolocation button needs JavaScript.